| time (UTC) | temp F | wind direction | speed knots | gust knots | rain 1hr in | rain 24hr in | rain mn in | humidity % | barometer mb |
| 20260507083327 | 57 | 300 | 2.6 | 5.2 | 0.00 | 0.00 | 0.00 | 70 | 1015.9 |
| 20260507082823 | 57 | 16 | 2.6 | 7.0 | 0.00 | 0.00 | 0.00 | 68 | 1016.0 |
| 20260507082318 | 57 | 8 | 3.5 | 7.0 | 0.00 | 0.00 | 0.00 | 68 | 1016.0 |
| 20260507081814 | 57 | 297 | 1.7 | 4.3 | 0.00 | 0.00 | 0.00 | 69 | 1016.0 |
| 20260507081315 | 57 | 336 | 1.7 | 4.3 | 0.00 | 0.00 | 0.00 | 70 | 1016.1 |
| 20260507080851 | 56 | 39 | 0.9 | 4.3 | 0.00 | 0.00 | 0.00 | 72 | 1016.0 |
| 20260507080324 | 56 | 39 | 2.6 | 4.3 | 0.00 | 0.00 | 0.00 | 71 | 1016.0 |
| 20260507075818 | 56 | 347 | 0.9 | 4.3 | 0.00 | 0.00 | 0.00 | 72 | 1015.9 |
| 20260507075326 | 56 | 33 | 0.9 | 4.3 | 0.00 | 0.00 | 0.00 | 72 | 1015.9 |
| 20260507074845 | 55 | 13 | 2.6 | 4.3 | 0.00 | 0.00 | 0.00 | 72 | 1015.9 |
| 20260507074342 | 55 | 314 | 2.6 | 4.3 | 0.00 | 0.00 | 0.00 | 74 | 1015.9 |
| 20260507073837 | 54 | 319 | 0.9 | 4.3 | 0.00 | 0.00 | 0.00 | 76 | 1015.8 |
| 20260507073331 | 54 | 308 | 1.7 | 5.2 | 0.00 | 0.00 | 0.00 | 75 | 1015.8 |
| 20260507072832 | 54 | 353 | 2.6 | 5.2 | 0.00 | 0.00 | 0.00 | 76 | 1015.8 |
| 20260507072319 | 54 | 340 | 3.5 | 5.2 | 0.00 | 0.00 | 0.00 | 76 | 1015.8 |
| 20260507071822 | 53 | 266 | 0.9 | 3.5 | 0.00 | 0.00 | 0.00 | 78 | 1015.7 |
| 20260507071317 | 53 | 348 | 1.7 | 3.5 | 0.00 | 0.00 | 0.00 | 77 | 1015.7 |
| 20260507070832 | 53 | 13 | 1.7 | 3.5 | 0.00 | 0.00 | 0.00 | 77 | 1015.6 |
| 20260507070354 | 53 | 355 | 0.9 | 2.6 | 0.00 | 0.00 | 0.00 | 79 | 1015.6 |
| 20260507065815 | 53 | 15 | 0.0 | 1.7 | 0.00 | 0.00 | 0.00 | 80 | 1015.6 |
| 20260507065328 | 52 | 65 | 0.9 | 2.6 | 0.00 | 0.00 | 0.00 | 80 | 1015.6 |
| 20260507064823 | 52 | 15 | 1.7 | 4.3 | 0.00 | 0.00 | 0.00 | 80 | 1015.6 |
| 20260507064325 | 52 | 236 | 0.9 | 4.3 | 0.00 | 0.00 | 0.00 | 81 | 1015.7 |
| 20260507063832 | 51 | 37 | 1.7 | 5.2 | 0.00 | 0.00 | 0.00 | 81 | 1015.6 |
| 20260507063335 | 51 | 21 | 3.5 | 5.2 | 0.00 | 0.00 | 0.00 | 81 | 1015.7 |
| 20260507062858 | 51 | 302 | 1.7 | 6.1 | 0.00 | 0.00 | 0.00 | 81 | 1015.6 |
| 20260507062325 | 51 | 351 | 4.3 | 6.1 | 0.00 | 0.00 | 0.00 | 81 | 1015.6 |
| 20260507061824 | 51 | 317 | 2.6 | 6.1 | 0.00 | 0.00 | 0.00 | 82 | 1015.5 |
| 20260507061318 | 51 | 314 | 2.6 | 5.2 | 0.00 | 0.00 | 0.00 | 82 | 1015.5 |
| 20260507060831 | 51 | 339 | 3.5 | 5.2 | 0.00 | 0.00 | 0.00 | 83 | 1015.4 |
| 20260507060327 | 51 | 6 | 1.7 | 2.6 | 0.00 | 0.00 | 0.00 | 84 | 1015.4 |
| 20260507055819 | 51 | 347 | 1.7 | 2.6 | 0.00 | 0.00 | 0.00 | 85 | 1015.3 |
| 20260507055325 | 50 | 349 | 0.0 | 2.6 | 0.00 | 0.00 | 0.00 | 85 | 1015.3 |
| 20260507054827 | 50 | 33 | 1.7 | 3.5 | 0.00 | 0.00 | 0.00 | 85 | 1015.3 |
| 20260507054321 | 50 | 6 | 1.7 | 3.5 | 0.00 | 0.00 | 0.00 | 85 | 1015.3 |
| 20260507053817 | 50 | 11 | 0.9 | 1.7 | 0.00 | 0.00 | 0.00 | 85 | 1015.2 |
| 20260507053400 | 50 | 27 | 0.0 | 1.7 | 0.00 | 0.00 | 0.00 | 85 | 1015.2 |
| 20260507052813 | 50 | 27 | 0.9 | 1.7 | 0.00 | 0.00 | 0.00 | 85 | 1015.1 |
| 20260507052348 | 50 | 353 | 0.9 | 4.3 | 0.00 | 0.00 | 0.00 | 85 | 1015.1 |
| 20260507051822 | 50 | 343 | 0.9 | 5.2 | 0.00 | 0.00 | 0.00 | 85 | 1015.0 |
| 20260507051324 | 50 | 353 | 2.6 | 5.2 | 0.00 | 0.00 | 0.00 | 85 | 1015.0 |
| 20260507050813 | 50 | 330 | 2.6 | 5.2 | 0.00 | 0.00 | 0.00 | 86 | 1014.9 |
| 20260507050333 | 50 | 359 | 0.9 | 2.6 | 0.00 | 0.00 | 0.00 | 86 | 1014.8 |
| 20260507045825 | 50 | 27 | 0.9 | 2.6 | 0.00 | 0.00 | 0.00 | 86 | 1014.8 |
| 20260507045331 | 50 | 49 | 0.0 | 0.9 | 0.00 | 0.00 | 0.00 | 86 | 1014.8 |
| 20260507044852 | 50 | 49 | 0.0 | 0.0 | 0.00 | 0.00 | 0.00 | 86 | 1014.6 |
| 20260507044334 | 50 | 49 | 0.0 | 0.0 | 0.00 | 0.00 | 0.00 | 86 | 1014.6 |
| 20260507043819 | 50 | 50 | 0.0 | 0.0 | 0.00 | 0.00 | 0.00 | 86 | 1014.6 |
| 20260507043340 | 50 | 49 | 0.0 | 0.0 | 0.00 | 0.00 | 0.00 | 86 | 1014.5 |
| 20260507042816 | 50 | 50 | 0.0 | 0.9 | 0.00 | 0.00 | 0.00 | 85 | 1014.6 |
| 20260507042327 | 50 | 49 | 0.0 | 0.9 | 0.00 | 0.00 | 0.00 | 85 | 1014.5 |
| 20260507041849 | 50 | 49 | 0.0 | 0.9 | 0.00 | 0.00 | 0.00 | 85 | 1014.4 |
| 20260507041324 | 50 | 50 | 0.0 | 1.7 | 0.00 | 0.00 | 0.00 | 85 | 1014.3 |
| 20260507040818 | 50 | 49 | 0.9 | 1.7 | 0.00 | 0.00 | 0.00 | 85 | 1014.3 |
| 20260507040315 | 50 | 53 | 0.9 | 1.7 | 0.00 | 0.00 | 0.00 | 85 | 1014.2 |
| 20260507035825 | 50 | 53 | 0.0 | 1.7 | 0.00 | 0.00 | 0.00 | 85 | 1014.2 |
| 20260507035315 | 50 | 52 | 0.0 | 1.7 | 0.00 | 0.00 | 0.00 | 85 | 1014.2 |
| 20260507034816 | 50 | 52 | 0.0 | 0.9 | 0.00 | 0.00 | 0.00 | 84 | 1014.1 |
| 20260507034329 | 50 | 58 | 0.0 | 1.7 | 0.00 | 0.00 | 0.00 | 84 | 1014.2 |
| 20260507033824 | 51 | 58 | 0.0 | 2.6 | 0.00 | 0.00 | 0.00 | 84 | 1014.1 |
| 20260507033318 | 51 | 61 | 0.9 | 3.5 | 0.00 | 0.00 | 0.00 | 84 | 1014.1 |
| 20260507032818 | 51 | 8 | 0.9 | 3.5 | 0.00 | 0.00 | 0.00 | 84 | 1014.0 |
| 20260507032348 | 51 | 341 | 0.9 | 3.5 | 0.00 | 0.00 | 0.00 | 84 | 1014.0 |
| 20260507031822 | 51 | 342 | 0.9 | 3.5 | 0.00 | 0.00 | 0.00 | 84 | 1014.0 |
| 20260507031323 | 51 | 70 | 1.7 | 3.5 | 0.00 | 0.00 | 0.00 | 83 | 1014.0 |
| 20260507030830 | 51 | 353 | 1.7 | 3.5 | 0.00 | 0.00 | 0.00 | 83 | 1014.0 |
| 20260507030332 | 51 | 356 | 0.9 | 4.3 | 0.00 | 0.00 | 0.00 | 83 | 1014.0 |
| 20260507025817 | 51 | 49 | 1.7 | 4.3 | 0.00 | 0.00 | 0.00 | 83 | 1013.9 |
| 20260507025330 | 51 | 13 | 0.0 | 2.6 | 0.00 | 0.00 | 0.00 | 82 | 1013.9 |
| 20260507024847 | 51 | 360 | 0.9 | 4.3 | 0.00 | 0.00 | 0.00 | 82 | 1013.9 |
| 20260507024342 | 51 | 345 | 0.9 | 3.5 | 0.00 | 0.00 | 0.00 | 82 | 1013.9 |
| 20260507023818 | 51 | 347 | 1.7 | 3.5 | 0.00 | 0.00 | 0.00 | 82 | 1013.9 |
| 20260507023314 | 51 | 6 | 0.9 | 3.5 | 0.00 | 0.00 | 0.00 | 81 | 1013.9 |
| 20260507022816 | 52 | 347 | 0.9 | 3.5 | 0.00 | 0.00 | 0.00 | 81 | 1013.8 |
| 20260507022330 | 52 | 346 | 0.0 | 3.5 | 0.00 | 0.00 | 0.00 | 81 | 1013.8 |
| 20260507021823 | 52 | 338 | 0.9 | 3.5 | 0.00 | 0.00 | 0.00 | 81 | 1013.7 |
| 20260507021319 | 52 | 335 | 0.9 | 2.6 | 0.00 | 0.00 | 0.00 | 80 | 1013.7 |
| 20260507020814 | 52 | 33 | 0.0 | 2.6 | 0.00 | 0.00 | 0.00 | 80 | 1013.7 |
| 20260507020334 | 52 | 344 | 0.9 | 2.6 | 0.00 | 0.00 | 0.00 | 80 | 1013.6 |
| 20260507015901 | 52 | 344 | 0.0 | 4.3 | 0.00 | 0.00 | 0.00 | 80 | 1013.6 |
| 20260507015323 | 52 | 358 | 1.7 | 4.3 | 0.00 | 0.00 | 0.00 | 80 | 1013.5 |
| 20260507014841 | 52 | 4 | 0.9 | 3.5 | 0.00 | 0.00 | 0.00 | 80 | 1013.4 |
| 20260507014343 | 52 | 330 | 0.0 | 4.3 | 0.00 | 0.00 | 0.00 | 80 | 1013.3 |
| 20260507013828 | 52 | 330 | 0.9 | 4.3 | 0.00 | 0.00 | 0.00 | 80 | 1013.4 |
| 20260507013328 | 52 | 347 | 0.0 | 1.7 | 0.00 | 0.00 | 0.00 | 80 | 1013.4 |
| 20260507012823 | 52 | 339 | 0.0 | 1.7 | 0.00 | 0.00 | 0.00 | 79 | 1013.4 |
| 20260507012316 | 52 | 325 | 0.0 | 2.6 | 0.00 | 0.00 | 0.00 | 79 | 1013.4 |
| 20260507011839 | 53 | 359 | 0.9 | 2.6 | 0.00 | 0.00 | 0.00 | 79 | 1013.4 |
| 20260507011315 | 53 | 332 | 0.9 | 2.6 | 0.00 | 0.00 | 0.00 | 78 | 1013.4 |
| 20260507010848 | 53 | 44 | 0.0 | 0.9 | 0.00 | 0.00 | 0.00 | 78 | 1013.4 |
| 20260507010321 | 53 | 44 | 0.0 | 2.6 | 0.00 | 0.00 | 0.00 | 78 | 1013.4 |
| 20260507005827 | 53 | 44 | 0.9 | 2.6 | 0.00 | 0.00 | 0.00 | 77 | 1013.4 |
| 20260507005315 | 53 | 69 | 0.0 | 1.7 | 0.00 | 0.00 | 0.00 | 77 | 1013.4 |
| 20260507004817 | 53 | 25 | 0.0 | 2.6 | 0.00 | 0.00 | 0.00 | 77 | 1013.3 |
| 20260507004313 | 53 | 58 | 0.0 | 3.5 | 0.00 | 0.00 | 0.00 | 77 | 1013.3 |
| 20260507003826 | 53 | 353 | 0.9 | 4.3 | 0.00 | 0.00 | 0.00 | 77 | 1013.3 |
| 20260507003322 | 53 | 341 | 1.7 | 4.3 | 0.00 | 0.00 | 0.00 | 78 | 1013.3 |
| 20260507002823 | 53 | 336 | 0.0 | 3.5 | 0.00 | 0.00 | 0.00 | 78 | 1013.3 |
| 20260507002324 | 52 | 308 | 0.9 | 3.5 | 0.00 | 0.00 | 0.00 | 78 | 1013.2 |
| 20260507001827 | 52 | 328 | 0.9 | 2.6 | 0.00 | 0.00 | 0.00 | 78 | 1013.2 |
| 20260507001321 | 52 | 8 | 0.0 | 3.5 | 0.00 | 0.00 | 0.00 | 79 | 1013.2 |
| 20260507000817 | 52 | 268 | 0.0 | 0.0 | 0.00 | 0.00 | 0.00 | 80 | 1013.2 |
| 20260507000337 | 52 | 269 | 0.0 | 0.0 | 0.00 | 0.00 | 0.00 | 80 | 1013.2 |
| 20260506235825 | 51 | 269 | 0.0 | 0.0 | 0.00 | 0.00 | 0.00 | 80 | 1013.2 |
| 20260506235323 | 52 | 268 | 0.0 | 0.0 | 0.00 | 0.00 | 0.00 | 80 | 1013.2 |
| 20260506234831 | 52 | 269 | 0.0 | 0.0 | 0.00 | 0.00 | 0.00 | 79 | 1013.2 |
| 20260506234334 | 52 | 269 | 0.0 | 0.0 | 0.00 | 0.00 | 0.00 | 80 | 1013.2 |
| 20260506233825 | 52 | 268 | 0.0 | 0.0 | 0.00 | 0.00 | 0.00 | 79 | 1013.2 |
| 20260506233326 | 52 | 269 | 0.0 | 0.9 | 0.00 | 0.00 | 0.00 | 79 | 1013.2 |
| 20260506232820 | 52 | 304 | 0.0 | 0.9 | 0.00 | 0.00 | 0.00 | 79 | 1013.1 |
| 20260506232332 | 52 | 69 | 0.0 | 0.0 | 0.00 | 0.00 | 0.00 | 79 | 1013.0 |
| 20260506231822 | 52 | 69 | 0.0 | 0.0 | 0.00 | 0.00 | 0.00 | 78 | 1013.0 |
| 20260506231324 | 52 | 70 | 0.0 | 0.0 | 0.00 | 0.00 | 0.00 | 77 | 1012.9 |
| 20260506230859 | 52 | 69 | 0.0 | 0.0 | 0.00 | 0.00 | 0.00 | 78 | 1012.9 |
| 20260506230400 | 52 | 69 | 0.0 | 0.0 | 0.00 | 0.00 | 0.00 | 77 | 1012.9 |
| 20260506225824 | 52 | 69 | 0.0 | 0.0 | 0.00 | 0.00 | 0.00 | 77 | 1012.9 |
| 20260506225318 | 52 | 69 | 0.0 | 0.0 | 0.00 | 0.00 | 0.00 | 77 | 1012.9 |
| 20260506224821 | 51 | 70 | 0.0 | 0.0 | 0.00 | 0.00 | 0.00 | 76 | 1012.9 |
| 20260506224344 | 51 | 69 | 0.0 | 0.0 | 0.00 | 0.00 | 0.00 | 77 | 1012.8 |
| 20260506223838 | 52 | 69 | 0.0 | 0.0 | 0.00 | 0.00 | 0.00 | 76 | 1012.9 |
| 20260506223332 | 52 | 69 | 0.0 | 0.0 | 0.00 | 0.00 | 0.00 | 76 | 1012.8 |
| 20260506222828 | 52 | 70 | 0.0 | 0.0 | 0.00 | 0.00 | 0.00 | 76 | 1012.8 |
| 20260506222322 | 52 | 69 | 0.0 | 0.0 | 0.00 | 0.00 | 0.00 | 76 | 1012.8 |
| 20260506221817 | 52 | 69 | 0.0 | 0.0 | 0.00 | 0.00 | 0.00 | 76 | 1012.7 |
| 20260506221320 | 52 | 69 | 0.0 | 0.0 | 0.00 | 0.00 | 0.00 | 75 | 1012.6 |
| 20260506220826 | 52 | 69 | 0.0 | 0.0 | 0.00 | 0.00 | 0.00 | 75 | 1012.7 |
| 20260506220341 | 52 | 69 | 0.0 | 0.0 | 0.00 | 0.00 | 0.00 | 75 | 1012.7 |
| 20260506215815 | 52 | 70 | 0.0 | 0.0 | 0.00 | 0.00 | 0.00 | 75 | 1012.7 |
| 20260506215328 | 53 | 69 | 0.0 | 0.0 | 0.00 | 0.00 | 0.00 | 75 | 1012.7 |
| 20260506214823 | 53 | 69 | 0.0 | 0.0 | 0.00 | 0.00 | 0.00 | 75 | 1012.7 |
| 20260506214342 | 53 | 69 | 0.0 | 0.9 | 0.00 | 0.00 | 0.00 | 75 | 1012.6 |
| 20260506213825 | 52 | 69 | 0.0 | 0.9 | 0.00 | 0.00 | 0.00 | 75 | 1012.6 |
| 20260506213328 | 52 | 72 | 0.0 | 0.9 | 0.00 | 0.00 | 0.00 | 76 | 1012.6 |
| 20260506212824 | 52 | 72 | 0.0 | 0.9 | 0.00 | 0.00 | 0.00 | 77 | 1012.6 |
| 20260506212339 | 52 | 96 | 0.0 | 0.9 | 0.00 | 0.00 | 0.00 | 77 | 1012.5 |
| 20260506211833 | 52 | 317 | 0.0 | 0.9 | 0.00 | 0.00 | 0.00 | 77 | 1012.5 |
| 20260506211334 | 52 | 101 | 0.0 | 0.0 | 0.00 | 0.00 | 0.00 | 77 | 1012.4 |
| 20260506210821 | 52 | 101 | 0.0 | 0.0 | 0.00 | 0.00 | 0.00 | 77 | 1012.5 |
| 20260506210316 | 52 | 101 | 0.0 | 0.0 | 0.00 | 0.00 | 0.00 | 77 | 1012.5 |
| 20260506205829 | 52 | 101 | 0.0 | 0.0 | 0.00 | 0.00 | 0.00 | 76 | 1012.5 |
| 20260506205323 | 52 | 100 | 0.0 | 0.0 | 0.00 | 0.00 | 0.00 | 76 | 1012.4 |
| 20260506204818 | 52 | 101 | 0.0 | 0.9 | 0.00 | 0.00 | 0.00 | 76 | 1012.3 |
| 20260506204315 | 52 | 37 | 0.0 | 0.9 | 0.00 | 0.00 | 0.00 | 76 | 1012.2 |
| 20260506203827 | 53 | 37 | 0.0 | 0.0 | 0.00 | 0.00 | 0.00 | 76 | 1012.2 |
| 20260506203328 | 53 | 37 | 0.0 | 0.0 | 0.00 | 0.00 | 0.00 | 76 | 1012.1 |
| 20260506202824 | 53 | 38 | 0.0 | 0.0 | 0.00 | 0.00 | 0.00 | 75 | 1012.1 |
| 20260506202338 | 53 | 37 | 0.0 | 0.0 | 0.00 | 0.00 | 0.00 | 74 | 1012.1 |
| 20260506201831 | 53 | 37 | 0.0 | 0.9 | 0.00 | 0.00 | 0.00 | 73 | 1012.1 |
| 20260506201330 | 53 | 39 | 0.0 | 0.9 | 0.00 | 0.00 | 0.00 | 73 | 1012.1 |
| 20260506200816 | 53 | 360 | 0.0 | 1.7 | 0.00 | 0.00 | 0.00 | 74 | 1012.0 |
| 20260506200335 | 53 | 41 | 0.9 | 1.7 | 0.00 | 0.00 | 0.00 | 73 | 1012.0 |
| 20260506195828 | 53 | 261 | 0.0 | 0.9 | 0.00 | 0.00 | 0.00 | 74 | 1012.0 |
| 20260506195315 | 53 | 260 | 0.0 | 0.9 | 0.00 | 0.00 | 0.00 | 73 | 1011.9 |
| 20260506194829 | 53 | 261 | 0.0 | 0.9 | 0.00 | 0.00 | 0.00 | 73 | 1011.9 |
| 20260506194325 | 53 | 260 | 0.0 | 0.9 | 0.00 | 0.00 | 0.00 | 73 | 1011.9 |
| 20260506193817 | 53 | 260 | 0.0 | 0.9 | 0.00 | 0.00 | 0.00 | 72 | 1011.9 |
| 20260506193314 | 53 | 260 | 0.0 | 0.9 | 0.00 | 0.00 | 0.00 | 71 | 1011.9 |
| 20260506192836 | 54 | 260 | 0.0 | 0.9 | 0.00 | 0.00 | 0.00 | 71 | 1011.8 |
| 20260506192319 | 54 | 41 | 0.0 | 1.7 | 0.00 | 0.00 | 0.00 | 71 | 1011.7 |
| 20260506191819 | 54 | 41 | 0.9 | 1.7 | 0.00 | 0.00 | 0.00 | 70 | 1011.7 |
| 20260506191316 | 54 | 94 | 0.0 | 0.9 | 0.00 | 0.00 | 0.00 | 70 | 1011.6 |
| 20260506190828 | 54 | 6 | 0.0 | 3.5 | 0.00 | 0.00 | 0.00 | 69 | 1011.6 |
| 20260506190331 | 54 | 121 | 1.7 | 3.5 | 0.00 | 0.00 | 0.00 | 69 | 1011.5 |
| 20260506185837 | 54 | 117 | 0.9 | 5.2 | 0.00 | 0.00 | 0.00 | 69 | 1011.5 |
| 20260506185358 | 54 | 35 | 1.7 | 5.2 | 0.00 | 0.00 | 0.00 | 68 | 1011.4 |
| 20260506184831 | 54 | 42 | 1.7 | 10.4 | 0.00 | 0.00 | 0.00 | 69 | 1011.4 |
| 20260506184328 | 54 | 54 | 1.7 | 10.4 | 0.00 | 0.00 | 0.00 | 68 | 1011.3 |
| 20260506183822 | 54 | 347 | 0.9 | 8.7 | 0.00 | 0.00 | 0.00 | 69 | 1011.3 |
| 20260506183318 | 54 | 63 | 2.6 | 9.6 | 0.00 | 0.00 | 0.00 | 69 | 1011.3 |
| 20260506182812 | 54 | 79 | 3.5 | 9.6 | 0.00 | 0.00 | 0.00 | 69 | 1011.2 |
| 20260506182328 | 54 | 179 | 2.6 | 7.8 | 0.00 | 0.00 | 0.00 | 68 | 1011.1 |
| 20260506181829 | 55 | 143 | 1.7 | 7.0 | 0.00 | 0.00 | 0.00 | 68 | 1011.1 |
| 20260506181323 | 55 | 108 | 0.9 | 7.8 | 0.00 | 0.00 | 0.00 | 67 | 1011.0 |
| 20260506180818 | 55 | 13 | 1.7 | 7.8 | 0.00 | 0.00 | 0.00 | 67 | 1010.8 |
| 20260506180313 | 55 | 72 | 2.6 | 10.4 | 0.00 | 0.00 | 0.00 | 66 | 1010.7 |
| 20260506175844 | 55 | 330 | 5.2 | 11.3 | 0.00 | 0.00 | 0.00 | 65 | 1010.7 |
| 20260506175316 | 55 | 56 | 1.7 | 8.7 | 0.00 | 0.00 | 0.00 | 65 | 1010.5 |
| 20260506174813 | 55 | 74 | 5.2 | 9.6 | 0.00 | 0.00 | 0.00 | 62 | 1010.5 |
| 20260506174335 | 56 | 27 | 6.1 | 10.4 | 0.00 | 0.00 | 0.00 | 62 | 1010.5 |
| 20260506173821 | 56 | 84 | 2.6 | 9.6 | 0.00 | 0.00 | 0.00 | 63 | 1010.4 |
| 20260506173323 | 56 | 50 | 5.2 | 9.6 | 0.00 | 0.00 | 0.00 | 62 | 1010.3 |
| 20260506172315 | 56 | 39 | 6.1 | 9.6 | 0.00 | 0.00 | 0.00 | 62 | 1010.2 |
| 20260506171818 | 56 | 335 | 6.1 | 9.6 | 0.00 | 0.00 | 0.00 | 61 | 1010.1 |
| 20260506171314 | 57 | 75 | 3.5 | 9.6 | 0.00 | 0.00 | 0.00 | 61 | 1010.0 |
| 20260506170847 | 57 | 59 | 6.1 | 9.6 | 0.00 | 0.00 | 0.00 | 60 | 1010.0 |
| 20260506170328 | 57 | 53 | 2.6 | 11.3 | 0.00 | 0.00 | 0.00 | 60 | 1010.0 |
| 20260506165839 | 57 | 27 | 6.1 | 11.3 | 0.00 | 0.00 | 0.00 | 59 | 1010.0 |
| 20260506165352 | 57 | 34 | 5.2 | 10.4 | 0.00 | 0.00 | 0.00 | 60 | 1009.9 |
| 20260506164827 | 57 | 44 | 3.5 | 9.6 | 0.00 | 0.00 | 0.00 | 61 | 1009.9 |
| 20260506164322 | 57 | 318 | 5.2 | 10.4 | 0.00 | 0.00 | 0.00 | 61 | 1009.9 |
| 20260506163816 | 57 | 348 | 6.1 | 10.4 | 0.00 | 0.00 | 0.00 | 61 | 1009.9 |
| 20260506163338 | 57 | 21 | 4.3 | 11.3 | 0.00 | 0.00 | 0.00 | 62 | 1009.8 |
| 20260506162814 | 57 | 30 | 5.2 | 11.3 | 0.00 | 0.00 | 0.00 | 61 | 1009.8 |
| 20260506162321 | 57 | 33 | 5.2 | 10.4 | 0.00 | 0.00 | 0.00 | 61 | 1009.8 |
| 20260506161823 | 58 | 25 | 1.7 | 7.0 | 0.00 | 0.00 | 0.00 | 63 | 1009.8 |
| 20260506161346 | 58 | 33 | 4.3 | 7.0 | 0.00 | 0.00 | 0.00 | 63 | 1009.6 |
| 20260506160839 | 58 | 45 | 3.5 | 7.8 | 0.00 | 0.00 | 0.00 | 64 | 1009.7 |
| 20260506160312 | 58 | 316 | 3.5 | 8.7 | 0.00 | 0.00 | 0.00 | 64 | 1009.6 |
| 20260506155816 | 58 | 335 | 4.3 | 8.7 | 0.00 | 0.00 | 0.00 | 63 | 1009.6 |
| 20260506155331 | 58 | 27 | 3.5 | 7.8 | 0.00 | 0.00 | 0.00 | 63 | 1009.6 |
| 20260506154833 | 58 | 24 | 3.5 | 7.8 | 0.00 | 0.00 | 0.00 | 63 | 1009.6 |
| 20260506154328 | 59 | 41 | 5.2 | 9.6 | 0.00 | 0.00 | 0.00 | 62 | 1009.6 |
| 20260506153813 | 59 | 111 | 2.6 | 8.7 | 0.00 | 0.00 | 0.00 | 63 | 1009.6 |
| 20260506153316 | 59 | 11 | 2.6 | 7.0 | 0.00 | 0.00 | 0.00 | 62 | 1009.6 |
| 20260506152829 | 59 | 321 | 2.6 | 8.7 | 0.00 | 0.00 | 0.00 | 61 | 1009.6 |
| 20260506152324 | 59 | 341 | 5.2 | 10.4 | 0.00 | 0.00 | 0.00 | 60 | 1009.6 |
| 20260506151829 | 60 | 16 | 6.1 | 9.6 | 0.00 | 0.00 | 0.00 | 61 | 1009.5 |
| 20260506151320 | 59 | 354 | 3.5 | 9.6 | 0.00 | 0.00 | 0.00 | 63 | 1009.5 |
| 20260506150824 | 59 | 61 | 4.3 | 9.6 | 0.00 | 0.00 | 0.00 | 63 | 1009.5 |
| 20260506150319 | 59 | 345 | 3.5 | 9.6 | 0.00 | 0.00 | 0.00 | 64 | 1009.5 |
| 20260506145814 | 58 | 312 | 2.6 | 7.0 | 0.00 | 0.00 | 0.00 | 64 | 1009.5 |
| 20260506145320 | 58 | 268 | 4.3 | 7.0 | 0.00 | 0.00 | 0.00 | 63 | 1009.6 |
| 20260506144823 | 59 | 347 | 2.6 | 6.1 | 0.00 | 0.00 | 0.00 | 63 | 1009.5 |
| 20260506144339 | 59 | 46 | 1.7 | 7.8 | 0.00 | 0.00 | 0.00 | 62 | 1009.5 |
| 20260506143812 | 59 | 47 | 4.3 | 7.8 | 0.00 | 0.00 | 0.00 | 60 | 1009.5 |
| 20260506143335 | 59 | 358 | 4.3 | 8.7 | 0.00 | 0.00 | 0.00 | 59 | 1009.5 |
| 20260506142829 | 59 | 25 | 4.3 | 8.7 | 0.00 | 0.00 | 0.00 | 59 | 1009.5 |
| 20260506142324 | 59 | 1 | 3.5 | 8.7 | 0.00 | 0.00 | 0.00 | 60 | 1009.5 |
| 20260506141817 | 58 | 49 | 4.3 | 8.7 | 0.00 | 0.00 | 0.00 | 60 | 1009.5 |
| 20260506141320 | 58 | 290 | 2.6 | 10.4 | 0.00 | 0.00 | 0.00 | 60 | 1009.5 |
| 20260506140841 | 58 | 33 | 4.3 | 10.4 | 0.00 | 0.00 | 0.00 | 58 | 1009.5 |
| 20260506140334 | 58 | 300 | 5.2 | 9.6 | 0.00 | 0.00 | 0.00 | 61 | 1009.5 |
| 20260506135828 | 58 | 298 | 6.1 | 9.6 | 0.00 | 0.00 | 0.00 | 63 | 1009.6 |
| 20260506135325 | 58 | 78 | 3.5 | 9.6 | 0.00 | 0.00 | 0.00 | 64 | 1009.5 |
| 20260506134817 | 58 | 312 | 4.3 | 9.6 | 0.00 | 0.00 | 0.00 | 65 | 1009.5 |
| 20260506134340 | 58 | 354 | 4.3 | 8.7 | 0.00 | 0.00 | 0.00 | 66 | 1009.5 |
| 20260506133820 | 58 | 319 | 5.2 | 8.7 | 0.00 | 0.00 | 0.00 | 65 | 1009.5 |
| 20260506133312 | 59 | 319 | 1.7 | 8.7 | 0.00 | 0.00 | 0.00 | 65 | 1009.4 |
| 20260506132814 | 59 | 18 | 4.3 | 8.7 | 0.00 | 0.00 | 0.00 | 63 | 1009.5 |
| 20260506131827 | 59 | 79 | 6.1 | 13.0 | 0.00 | 0.00 | 0.00 | 61 | 1009.4 |
| 20260506131330 | 59 | 323 | 7.0 | 13.0 | 0.00 | 0.00 | 0.00 | 62 | 1009.4 |
| 20260506130817 | 59 | 25 | 2.6 | 7.8 | 0.00 | 0.00 | 0.00 | 63 | 1009.3 |
| 20260506130335 | 59 | 40 | 4.3 | 8.7 | 0.00 | 0.00 | 0.00 | 64 | 1009.3 |
| 20260506125848 | 59 | 309 | 3.5 | 9.6 | 0.00 | 0.00 | 0.00 | 64 | 1009.2 |
| 20260506125315 | 59 | 338 | 5.2 | 9.6 | 0.00 | 0.00 | 0.00 | 63 | 1009.2 |
| 20260506124835 | 59 | 283 | 3.5 | 9.6 | 0.00 | 0.00 | 0.00 | 63 | 1009.2 |
| 20260506124348 | 59 | 341 | 5.2 | 10.4 | 0.00 | 0.00 | 0.00 | 63 | 1009.2 |
| 20260506123817 | 59 | 101 | 3.5 | 9.6 | 0.00 | 0.00 | 0.00 | 64 | 1009.2 |
| 20260506123337 | 59 | 338 | 4.3 | 7.8 | 0.00 | 0.00 | 0.00 | 65 | 1009.2 |
| 20260506122859 | 59 | 19 | 2.6 | 7.8 | 0.00 | 0.00 | 0.00 | 65 | 1009.2 |
| 20260506122326 | 58 | 24 | 2.6 | 7.8 | 0.00 | 0.00 | 0.00 | 66 | 1009.1 |
| 20260506121826 | 58 | 305 | 4.3 | 8.7 | 0.00 | 0.00 | 0.00 | 67 | 1009.1 |
| 20260506121320 | 58 | 354 | 4.3 | 8.7 | 0.00 | 0.00 | 0.00 | 67 | 1009.1 |
| 20260506120816 | 58 | 46 | 3.5 | 9.6 | 0.00 | 0.00 | 0.00 | 69 | 1009.2 |
| 20260506120330 | 58 | 11 | 4.3 | 9.6 | 0.00 | 0.00 | 0.00 | 68 | 1009.1 |
| 20260506115836 | 59 | 318 | 5.2 | 11.3 | 0.00 | 0.00 | 0.00 | 67 | 1009.1 |
| 20260506115329 | 59 | 346 | 7.8 | 14.8 | 0.00 | 0.00 | 0.00 | 66 | 1009.0 |
| 20260506114821 | 60 | 85 | 7.0 | 14.8 | 0.00 | 0.00 | 0.00 | 66 | 1009.0 |
| 20260506114323 | 60 | 333 | 5.2 | 17.4 | 0.00 | 0.00 | 0.00 | 67 | 1009.0 |
| 20260506113829 | 60 | 21 | 5.2 | 17.4 | 0.00 | 0.00 | 0.00 | 67 | 1009.0 |
| 20260506113330 | 60 | 300 | 4.3 | 13.0 | 0.00 | 0.00 | 0.00 | 66 | 1009.0 |
| 20260506112826 | 60 | 336 | 6.1 | 12.2 | 0.00 | 0.00 | 0.00 | 67 | 1009.0 |
| 20260506112319 | 59 | 1 | 5.2 | 12.2 | 0.00 | 0.00 | 0.00 | 67 | 1008.9 |
| 20260506111814 | 60 | 11 | 3.5 | 12.2 | 0.00 | 0.00 | 0.00 | 69 | 1008.9 |
| 20260506111336 | 60 | 360 | 6.1 | 12.2 | 0.00 | 0.00 | 0.00 | 67 | 1009.0 |
| 20260506110823 | 59 | 33 | 5.2 | 8.7 | 0.00 | 0.00 | 0.00 | 69 | 1009.0 |
| 20260506110325 | 59 | 30 | 4.3 | 8.7 | 0.00 | 0.00 | 0.00 | 69 | 1009.1 |
| 20260506105826 | 59 | 148 | 3.5 | 10.4 | 0.00 | 0.00 | 0.00 | 69 | 1009.1 |
| 20260506105321 | 58 | 328 | 4.3 | 11.3 | 0.00 | 0.00 | 0.00 | 70 | 1009.1 |
| 20260506104816 | 58 | 305 | 5.2 | 12.2 | 0.00 | 0.00 | 0.00 | 71 | 1009.2 |
| 20260506104337 | 58 | 5 | 5.2 | 12.2 | 0.00 | 0.00 | 0.00 | 71 | 1009.1 |
| 20260506103824 | 58 | 298 | 4.3 | 12.2 | 0.00 | 0.00 | 0.00 | 72 | 1009.1 |
| 20260506103319 | 58 | 338 | 5.2 | 10.4 | 0.00 | 0.00 | 0.00 | 73 | 1009.2 |
| 20260506102819 | 58 | 19 | 5.2 | 10.4 | 0.00 | 0.00 | 0.00 | 74 | 1009.2 |
| 20260506102333 | 58 | 327 | 3.5 | 12.2 | 0.00 | 0.00 | 0.00 | 76 | 1009.1 |
| 20260506101825 | 57 | 38 | 5.2 | 12.2 | 0.00 | 0.00 | 0.00 | 76 | 1009.1 |
| 20260506101327 | 58 | 330 | 6.1 | 11.3 | 0.00 | 0.00 | 0.00 | 77 | 1009.1 |
| 20260506100813 | 57 | 322 | 2.6 | 11.3 | 0.00 | 0.00 | 0.00 | 78 | 1009.1 |
| 20260506100335 | 57 | 82 | 4.3 | 9.6 | 0.00 | 0.00 | 0.00 | 78 | 1009.0 |
| 20260506095818 | 57 | 75 | 5.2 | 9.6 | 0.00 | 0.00 | 0.00 | 79 | 1009.0 |
| 20260506095328 | 57 | 342 | 2.6 | 11.3 | 0.00 | 0.00 | 0.00 | 80 | 1009.0 |
| 20260506094823 | 56 | 267 | 1.7 | 11.3 | 0.00 | 0.00 | 0.00 | 80 | 1009.0 |
| 20260506094321 | 56 | 309 | 7.0 | 9.6 | 0.00 | 0.00 | 0.00 | 81 | 1009.0 |
| 20260506093828 | 56 | 274 | 4.3 | 8.7 | 0.00 | 0.00 | 0.00 | 82 | 1009.0 |
| 20260506093330 | 56 | 336 | 7.0 | 12.2 | 0.00 | 0.00 | 0.00 | 81 | 1009.0 |
| 20260506092821 | 55 | 319 | 5.2 | 12.2 | 0.00 | 0.00 | 0.00 | 82 | 1009.0 |
| 20260506092336 | 55 | 326 | 4.3 | 11.3 | 0.00 | 0.00 | 0.00 | 83 | 1009.0 |
| 20260506091814 | 55 | 103 | 3.5 | 9.6 | 0.00 | 0.00 | 0.00 | 84 | 1008.9 |
| 20260506091351 | 54 | 309 | 4.3 | 9.6 | 0.00 | 0.00 | 0.00 | 86 | 1008.9 |
| 20260506090818 | 54 | 3 | 4.3 | 9.6 | 0.00 | 0.00 | 0.00 | 90 | 1008.9 |
| 20260506090340 | 53 | 333 | 3.5 | 8.7 | 0.00 | 0.00 | 0.00 | 92 | 1008.9 |
| 20260506085852 | 52 | 70 | 3.5 | 7.0 | 0.00 | 0.00 | 0.00 | 92 | 1008.9 |
| 20260506085318 | 52 | 21 | 4.3 | 9.6 | 0.00 | 0.00 | 0.00 | 92 | 1008.9 |
| 20260506084813 | 51 | 324 | 3.5 | 9.6 | 0.00 | 0.00 | 0.00 | 92 | 1008.9 |
| 20260506084315 | 51 | 349 | 3.5 | 7.8 | 0.00 | 0.00 | 0.00 | 92 | 1008.8 |
| 20260506083823 | 51 | 22 | 4.3 | 9.6 | 0.00 | 0.00 | 0.00 | 92 | 1008.8 |